Forks, WA

7:50 AM PST on February 19, 2017 (GMT -0800)
Quillayute

Weather History for KUIL - October, 2012

Change the Weather History Date:

Wednesday, October 31, 2012

  Actual Average Record
Temperature  
Mean Temperature 54 °F 47 °F  
Max Temperature 55 °F 54 °F 67 °F (1970)
Min Temperature 53 °F 40 °F 23 °F (2006)
Degree Days  
Heating Degree Days 11 18  
Month to date heating degree days 466  
Since 1 July heating degree days 1090  
Cooling Degree Days 0 0  
Month to date cooling degree days 0  
Year to date cooling degree days 19  
Growing Degree Days 4 (Base 50)    
Moisture  
Dew Point 52 °F    
Average Humidity 92    
Maximum Humidity 94    
Minimum Humidity 86    
Precipitation  
Precipitation 1.24 in 0.45 in 3.00 in (1981)
Month to date precipitation 10.49  
Year to date precipitation 71.03  
Sea Level Pressure  
Sea Level Pressure 29.60 in    
Wind  
Wind Speed 9 mph (SSE)    
Max Wind Speed 18 mph    
Max Gust Speed 32 mph    
Visibility 4 miles    
Events Rain    
T = Trace of Precipitation, MM = Missing Value Source: NWS Daily Summary

Daily Weather History Graph

Daily Weather History Graph

Search for Another Location

Airport or City:

Trip Planner

Search our weather history database for the weather conditions in past years. The results will help you decide how hot, cold, wet, or windy it might be!

Date:

Astronomy

Oct. 31, 2012 Rise Set
Actual Time 8:02 AM PDT 6:00 PM PDT
Civil Twilight 7:29 AM PDT 6:32 PM PDT
Nautical Twilight 6:53 AM PDT 7:09 PM PDT
Astronomical Twilight 6:17 AM PDT 7:45 PM PDT
Moon 7:06 PM PDT (10/31) 9:57 AM PDT (10/31)
Length of Visible Light 11h 02m
Length of Day
9h 58m
Waning Gibbous, 97% of the Moon is Illuminated
Oct 31
Waning Gibbous
Nov 6
Last Quarter
Nov 13
New
Nov 20
First Quarter
Nov 28
Full

Hourly Weather History & Observations

Time (PDT) Temp. Dew Point Humidity Pressure Visibility Wind Dir Wind Speed Gust Speed Precip Events Conditions
12:53 AM 55.0 °F 53.1 °F 93% 29.71 in 4.0 mi Variable 4.6 mph - 0.12 in Rain Light Rain
1:53 AM 55.0 °F 52.0 °F 89% 29.70 in 4.0 mi SSE 6.9 mph - 0.07 in Rain Light Rain
2:53 AM 54.0 °F 51.1 °F 90% 29.69 in 7.0 mi ESE 3.5 mph - 0.02 in Rain Light Rain
3:23 AM 53.6 °F 51.8 °F 94% 29.68 in 9.0 mi Calm Calm - 0.01 in   Overcast
3:53 AM 54.0 °F 51.1 °F 90% 29.68 in 8.0 mi East 3.5 mph - 0.01 in Rain Light Rain
4:03 AM 53.6 °F 51.8 °F 94% 29.67 in 8.0 mi East 4.6 mph - 0.00 in Rain Light Rain
4:53 AM 54.0 °F 51.1 °F 90% 29.65 in 6.0 mi East 3.5 mph - 0.02 in Rain Light Rain
5:53 AM 53.1 °F 51.1 °F 93% 29.62 in 6.0 mi East 3.5 mph - 0.04 in Rain Light Rain
6:53 AM 53.1 °F 51.1 °F 93% 29.61 in 3.0 mi East 4.6 mph - 0.05 in Rain Rain
7:34 AM 53.6 °F 51.8 °F 94% 29.59 in 3.0 mi East 5.8 mph - 0.09 in Rain Rain
7:53 AM 53.1 °F 51.1 °F 93% 29.58 in 3.0 mi ENE 5.8 mph - 0.12 in Rain Rain
8:17 AM 53.6 °F 51.8 °F 94% 29.58 in 2.5 mi East 5.8 mph - 0.06 in Rain Heavy Rain
8:46 AM 53.6 °F 51.8 °F 94% 29.58 in 1.8 mi East 6.9 mph - 0.18 in Rain Rain
8:53 AM 53.1 °F 51.1 °F 93% 29.58 in 1.5 mi East 6.9 mph - 0.21 in Rain Rain
8:59 AM 53.6 °F 51.8 °F 94% 29.58 in 1.5 mi East 8.1 mph - 0.01 in Rain Rain
9:12 AM 53.6 °F 51.8 °F 94% 29.58 in 2.0 mi ESE 3.5 mph - 0.03 in Rain Rain
9:24 AM 53.6 °F 51.8 °F 94% 29.58 in 1.8 mi Variable 6.9 mph 18.4 mph 0.06 in Rain Rain
9:33 AM 55.4 °F 51.8 °F 88% 29.57 in 2.0 mi South 9.2 mph 24.2 mph 0.06 in Rain Rain
9:43 AM 55.4 °F 51.8 °F 88% 29.57 in 1.5 mi Variable 6.9 mph 18.4 mph 0.09 in Rain Rain
9:53 AM 55.0 °F 52.0 °F 89% 29.57 in 1.2 mi South 13.8 mph 20.7 mph 0.10 in Rain Rain
10:49 AM 55.4 °F 53.6 °F 94% 29.56 in 1.5 mi SSE 12.7 mph 25.3 mph 0.14 in Rain Rain
10:53 AM 55.0 °F 53.1 °F 93% 29.56 in 1.2 mi South 12.7 mph 21.9 mph 0.15 in Rain Rain
11:08 AM 55.4 °F 53.6 °F 94% 29.55 in 1.8 mi South 15.0 mph 23.0 mph 0.04 in Rain Rain
11:24 AM 55.4 °F 53.6 °F 94% 29.56 in 1.2 mi South 10.4 mph 18.4 mph 0.09 in Rain Rain
11:32 AM 55.4 °F 53.6 °F 94% 29.55 in 2.0 mi SSE 8.1 mph 17.3 mph 0.11 in Rain Light Rain
11:53 AM 55.0 °F 53.1 °F 93% 29.56 in 1.2 mi SSE 9.2 mph 16.1 mph 0.12 in Rain Light Rain
12:11 PM 55.4 °F 53.6 °F 94% 29.56 in 2.0 mi South 8.1 mph 20.7 mph 0.04 in Rain Light Rain
12:19 PM 55.4 °F 53.6 °F 94% 29.56 in 3.0 mi South 15.0 mph 26.5 mph 0.04 in Rain Light Rain
12:30 PM 55.4 °F 53.6 °F 94% 29.55 in 1.8 mi South 13.8 mph 23.0 mph N/A Rain Light Rain
12:38 PM 55.4 °F 53.6 °F 94% 29.55 in 1.0 mi South 9.2 mph 23.0 mph 0.09 in Rain Rain
12:44 PM 55.4 °F 53.6 °F 94% 29.55 in 2.0 mi South 10.4 mph 20.7 mph 0.10 in Rain Light Rain
12:53 PM 55.0 °F 53.1 °F 93% 29.55 in 1.5 mi South 11.5 mph 21.9 mph 0.11 in Rain Light Rain
1:04 PM 55.4 °F 53.6 °F 94% 29.55 in 2.5 mi South 10.4 mph 24.2 mph 0.02 in Rain Light Rain
1:18 PM 55.4 °F 53.6 °F 94% 29.54 in 3.0 mi South 13.8 mph 24.2 mph 0.03 in Rain Light Rain
1:53 PM 55.0 °F 53.1 °F 93% 29.55 in 2.5 mi South 13.8 mph 24.2 mph 0.04 in Rain Light Rain
1:58 PM 55.4 °F 53.6 °F 94% 29.54 in 1.2 mi South 13.8 mph 27.6 mph 0.01 in Rain Rain
2:06 PM 55.4 °F 51.8 °F 88% 29.54 in 0.8 mi South 11.5 mph 27.6 mph 0.08 in Rain Rain
2:15 PM 55.4 °F 51.8 °F 88% 29.54 in 1.2 mi South 8.1 mph 25.3 mph 0.11 in Rain Rain
2:34 PM 55.4 °F 51.8 °F 88% 29.55 in 2.0 mi South 11.5 mph 26.5 mph 0.15 in Rain Light Rain
2:53 PM 55.0 °F 53.1 °F 93% 29.55 in 3.0 mi South 11.5 mph 21.9 mph 0.18 in Rain Light Rain
3:53 PM 55.0 °F 53.1 °F 93% 29.59 in 5.0 mi South 13.8 mph 26.5 mph 0.00 in   Overcast
4:51 PM 55.4 °F 53.6 °F 94% 29.59 in 2.5 mi South 11.5 mph 21.9 mph N/A   Overcast
4:53 PM 55.0 °F 53.1 °F 93% 29.59 in 2.5 mi South 15.0 mph 23.0 mph N/A   Overcast
5:07 PM 55.4 °F 51.8 °F 88% 29.59 in 3.0 mi South 12.7 mph 26.5 mph N/A   Overcast
5:53 PM 54.0 °F 52.0 °F 93% 29.61 in 3.0 mi South 13.8 mph 25.3 mph 0.00 in Rain Light Rain
6:31 PM 53.6 °F 50.0 °F 88% 29.62 in 6.0 mi South 10.4 mph 23.0 mph 0.01 in   Overcast
6:53 PM 53.1 °F 50.0 °F 89% 29.62 in 7.0 mi South 9.2 mph 21.9 mph 0.01 in   Overcast
7:50 PM 53.6 °F 50.0 °F 88% 29.63 in 7.0 mi Variable 6.9 mph - N/A   Overcast
7:53 PM 54.0 °F 50.0 °F 86% 29.63 in 7.0 mi South 10.4 mph 19.6 mph N/A   Overcast
8:00 PM 53.6 °F 50.0 °F 88% 29.63 in 7.0 mi SSE 9.2 mph 19.6 mph N/A   Overcast
8:53 PM 54.0 °F 51.1 °F 90% 29.64 in 8.0 mi SSE 8.1 mph 16.1 mph N/A   Overcast
9:07 PM 53.6 °F 51.8 °F 94% 29.64 in 7.0 mi SSE 11.5 mph 21.9 mph N/A   Overcast
9:53 PM 54.0 °F 51.1 °F 90% 29.65 in 7.0 mi South 8.1 mph - N/A   Overcast
10:53 PM 54.0 °F 52.0 °F 93% 29.66 in 5.0 mi Variable 5.8 mph - 0.00 in   Overcast
11:53 PM 55.0 °F 51.1 °F 86% 29.66 in 6.0 mi SSE 8.1 mph - N/A   Overcast